Voltar ao catálogo

STARLINK-6082

AtivoComunicaçõesVLEO
NORAD 56110·PAYLOAD·🇺🇸 United States

Lançado Mar 29, 2023 de Cape Canaveral Space Force Station

Loading…

Próximas Passagens (próximas 24 horas)

TLE

AtualizadoSource: CelesTrak SupGP

Época: Sep 14, 2026, 21:23 UTC

1 56110C 23046T   26257.89145833 -.00028977  00000+0 -10496-2 0  2574
2 56110  43.0025 173.2229 0000997 264.6230 154.9659 15.27590539    19

Acompanhe STARLINK-6082 em tempo real com AllMySat

Download on the App Store